Hourly Data Report for September 17, 2017

All times are specified in Local Standard Time (LST). Add 1 hour to adjust for Daylight Saving Time where and when it is observed.

FISHER BRANCH (AUT)
MANITOBA

51°05'00.100" N
97°33'16.200" W
253.00 m
50309J6
71442
WSZ

Download Data

Hourly Data (September 2017)
Hourly Data Report for September 17, 2017
Temp Definition
°C
Dew Point Temp Definition
°C
Rel Hum Definition
%
Wind Dir Definition
10's deg

Wind Spd Definition
km/h
Visibility Definition
km
Stn Press Definition
kPa
Hmdx Definition


Wind Chill Definition


Weather Definition


TIME
00:00 6.8 6.2 96 36 9   98.30     LegendNANA
01:00 6.8 6.2 96 36 6   98.28     LegendNANA
02:00 6.8 6.2 96 34 8   98.21     LegendNANA
03:00 6.7 6.2 96 33 9   98.18     LegendNANA
04:00 6.7 6.1 96 32 7   98.17     LegendNANA
05:00 6.4 5.7 96 30 12   98.17     LegendNANA
06:00 6.1 5.4 96 29 15   98.18     LegendNANA
07:00 6.2 5.3 94 27 11   98.17     LegendNANA
08:00 7.0 5.9 93 28 13   98.15     LegendNANA
09:00 7.6 6.0 89 26 14   98.19     LegendNANA
10:00 8.5 5.5 82 28 19   98.23     LegendNANA
11:00 9.3 5.2 76 29 21   98.28     LegendNANA
12:00 11.0 4.8 65 28 21   98.30     LegendNANA
13:00 10.3 5.6 73 27 18   98.31     LegendNANA
14:00 10.2 5.4 72 28 17   98.32     LegendNANA
15:00 11.3 4.7 64 28 20   98.35     LegendNANA
16:00 10.5 5.0 69 29 19   98.37     LegendNANA
17:00 8.9 5.7 80 28 14   98.42     LegendNANA
18:00 9.3 6.0 80 28 9   98.42     LegendNANA
19:00 7.1 5.2 87 23 6   98.44     LegendNANA
20:00 5.6 4.3 91 22 6   98.45     LegendNANA
21:00 6.3 5.0 91 23 7   98.46     LegendNANA
22:00 5.1 3.9 92 25 5   98.47     LegendNANA
23:00 2.8 2.2 96 24 3   98.45     LegendNANA

Notes on Data Quality.

Legend

  • E = Estimated
  • M = Missing
  • NA = Not Available
  • ‡ = Partner data that is not subject to review by the National Climate Archives
Date modified: